ECMWFFLT1_850_rhum_078.txt.gz
RH
21 21 21 19 19 25 33 46 60 75 89 98 100 98 94 94 93 87 83 83 80 74 68 65 61 58 59 63 64 65 66 70 75 78 81 85 87 90 91 89 88 86 81 77 70 58 52 56 60 58 55 53 53 52 52 52 52 51 49 45 41 37 32
23 22 23 22 20 20 20 22 28 39 55 74 92 101 100 96 89 84 85 87 84 78 70 66 63 61 61 64 67 69 70 72 76 81 84 87 90 92 93 93 91 88 84 81 76 67 59 57 60 60 57 56 56 54 54 53 53 53 51 46 41 38 33
27 26 26 26 25 25 24 24 25 26 32 43 64 84 95 97 93 88 91 93 88 81 74 69 67 65 64 67 71 73 74 75 78 83 87 90 92 94 95 96 95 91 87 83 79 73 67 62 61 60 59 60 60 58 56 55 55 56 52 47 44 40 35
34 34 33 31 30 29 29 30 30 30 32 36 51 68 79 91 99 98 97 97 92 86 80 74 71 70 68 70 74 76 78 80 81 85 89 93 95 96 97 98 97 94 90 87 83 77 73 69 64 62 62 63 63 60 57 58 59 59 54 49 46 42 38
39 40 38 36 36 34 34 35 37 38 38 38 48 62 72 85 99 102 101 100 96 91 86 79 77 76 72 72 76 78 82 84 85 87 91 95 97 98 99 100 99 97 93 91 88 82 78 75 70 66 65 65 65 62 60 61 63 62 57 52 49 46 42
42 43 43 42 42 40 40 42 43 47 48 46 49 55 65 82 97 100 100 102 100 96 92 86 83 81 77 75 77 79 85 87 88 90 92 96 99 98 100 102 101 100 97 94 92 87 84 81 76 71 68 67 67 65 63 63 65 64 60 56 53 48 44
44 45 45 45 45 45 47 50 50 56 63 64 62 61 63 75 91 97 98 101 102 100 98 93 88 86 82 79 79 81 87 91 91 92 94 96 99 100 101 102 101 101 100 96 94 92 88 85 82 77 72 70 70 69 66 64 65 65 61 58 57 52 48
46 46 47 49 53 54 57 61 62 67 73 75 77 79 79 82 92 99 97 99 101 100 101 99 95 92 88 84 83 85 90 94 94 94 96 98 100 101 101 101 101 101 101 98 97 95 91 89 87 83 77 74 75 71 64 64 70 70 62 60 61 58 55
51 52 52 54 60 64 67 71 70 72 81 89 93 95 96 96 98 98 96 98 101 99 99 101 99 96 93 91 92 93 96 98 96 96 99 101 102 102 101 101 101 101 101 100 99 97 95 93 90 87 83 77 73 68 63 67 75 74 67 66 66 61 61
56 60 63 64 65 67 72 77 78 82 92 100 101 99 100 101 99 97 95 96 99 99 98 99 99 98 96 96 98 99 99 99 97 96 97 99 101 101 101 100 100 101 102 101 101 101 99 96 93 90 86 77 69 67 67 70 77 75 71 73 70 63 64
63 65 70 73 73 74 80 84 86 93 101 102 100 100 100 100 100 99 98 96 98 101 101 100 100 99 98 98 99 101 101 98 92 87 86 89 93 96 100 101 100 100 101 101 102 101 100 99 94 91 89 79 70 70 70 71 78 78 74 76 75 67 64
67 70 72 77 82 82 85 88 90 95 101 101 100 101 100 99 100 99 98 95 96 99 100 101 101 100 99 99 99 100 102 97 86 79 80 85 87 90 95 99 100 100 100 102 102 101 101 99 94 94 92 80 71 71 71 73 80 81 77 78 79 72 66
72 74 76 82 86 85 87 89 90 94 99 101 101 101 99 100 101 100 99 97 95 96 99 100 100 100 100 100 99 100 101 99 92 84 82 84 85 88 89 90 92 95 95 97 100 100 99 96 92 94 90 77 72 75 76 79 82 80 78 81 81 77 71
78 77 80 87 89 89 91 91 90 93 96 97 96 92 92 99 102 100 99 99 99 99 100 100 100 101 100 100 100 99 100 101 100 96 92 90 90 93 92 90 92 95 96 96 97 97 94 88 86 88 86 82 83 82 81 83 83 80 83 88 89 84 77
87 85 85 88 90 92 93 91 90 93 95 92 86 80 85 97 103 101 99 97 98 101 101 100 101 101 100 100 100 97 96 99 100 100 99 98 96 94 93 93 95 99 100 99 100 100 95 85 81 84 87 89 90 85 83 86 86 87 94 98 95 85 78
93 94 91 89 90 94 96 92 90 92 90 84 77 77 87 99 100 99 99 95 93 97 99 98 99 100 100 100 100 96 93 93 97 100 100 101 99 96 94 91 91 92 92 91 94 98 96 91 90 90 92 93 89 82 84 91 91 94 101 101 93 81 78
93 96 96 94 92 93 97 95 91 88 82 75 76 84 94 101 99 99 99 96 95 97 98 98 100 100 100 100 100 96 90 89 95 100 101 102 101 100 99 97 93 90 84 82 86 87 88 94 97 95 94 92 82 76 86 97 95 94 100 101 92 83 83
96 95 95 95 92 91 97 98 92 87 80 75 81 91 99 101 100 100 100 99 99 98 96 99 101 99 100 101 98 93 89 89 94 100 102 102 100 100 101 99 96 92 83 83 93 94 91 97 99 96 95 90 81 80 91 96 88 86 96 99 93 91 93
97 97 95 93 90 89 91 91 86 80 77 80 88 96 101 101 100 99 100 99 99 97 97 100 101 99 101 103 97 93 91 89 93 100 102 100 99 100 99 94 91 90 84 85 95 100 98 100 100 99 99 95 89 93 100 96 85 85 94 96 94 99 100
98 99 97 94 92 89 85 83 81 75 74 85 95 97 98 101 101 100 100 99 99 99 99 100 100 100 102 102 97 95 92 87 90 98 101 100 99 98 96 92 90 90 87 84 89 95 98 100 100 100 101 99 97 99 101 98 93 93 97 97 97 102 101
98 101 100 96 95 93 87 84 86 84 82 89 98 97 96 100 102 99 98 99 100 100 100 100 100 100 100 99 95 92 91 88 88 94 101 102 98 91 91 96 97 95 92 88 87 89 91 95 99 101 100 99 99 100 100 100 98 98 100 99 98 101 100
97 101 100 95 92 91 88 88 93 96 95 95 98 100 100 100 100 98 99 100 100 100 100 100 99 97 96 94 88 86 93 96 91 92 99 101 97 93 96 100 101 99 98 96 92 90 90 89 93 99 101 100 99 100 99 100 100 99 100 100 98 101 101
98 101 101 97 91 87 88 93 98 102 101 99 98 100 101 100 99 99 99 100 100 100 100 101 99 95 94 91 85 86 96 99 92 92 99 101 99 99 100 101 100 99 97 96 96 97 97 92 88 91 97 99 101 100 98 100 101 99 99 99 98 101 100
99 102 103 100 94 91 91 96 101 101 100 99 99 100 101 101 100 100 100 100 100 100 101 101 100 96 92 88 87 91 97 97 93 92 97 100 100 100 99 100 101 98 96 98 100 101 101 95 86 82 85 90 95 97 96 99 101 99 99 100 100 101 99
99 100 102 101 101 99 96 97 101 99 96 97 99 101 101 100 99 100 100 99 99 100 101 101 99 96 93 89 90 93 95 97 97 96 96 100 100 100 100 100 100 99 98 99 100 99 99 94 83 77 78 82 88 93 95 99 102 99 99 101 100 100 100
100 101 101 101 101 101 100 99 102 99 94 97 101 101 99 97 95 95 94 95 97 99 100 100 99 99 99 98 98 99 99 99 100 99 99 101 100 100 101 100 100 101 99 96 95 97 97 91 83 81 86 89 93 96 94 94 97 99 101 100 98 100 101
100 101 102 102 101 101 101 101 100 98 96 98 101 101 100 97 95 92 88 90 97 98 97 100 101 99 100 101 100 100 100 99 100 99 100 101 100 99 101 101 100 100 97 90 89 93 96 93 90 92 95 96 97 97 95 94 97 100 97 94 94 99 100
102 101 101 101 101 100 100 100 101 99 95 93 94 98 101 101 100 95 87 87 96 98 95 98 102 100 100 101 100 100 101 100 100 100 99 100 98 93 94 100 101 99 98 94 91 94 99 99 98 99 99 98 97 98 99 101 101 98 93 91 95 100 100
102 102 101 101 101 101 100 101 101 97 92 89 89 93 97 98 100 101 93 88 94 97 92 93 100 100 99 100 100 100 101 99 99 97 96 98 98 89 87 96 102 100 100 100 97 97 100 101 100 100 100 100 100 100 101 102 101 99 97 97 99 101 100
103 102 102 101 100 101 101 101 99 95 94 95 93 93 97 98 97 100 99 93 94 97 93 91 96 99 99 100 98 97 99 101 101 99 96 96 98 92 86 89 98 101 100 100 100 99 100 100 100 100 100 100 101 101 101 101 101 100 100 100 100 101 100
101 102 102 102 101 101 100 100 99 97 98 100 94 89 94 98 94 95 99 97 95 99 99 97 98 97 97 98 98 96 96 97 97 99 98 96 98 98 90 85 90 99 101 100 100 100 100 100 100 100 100 100 101 101 101 100 100 100 100 100 100 100 100
94 95 97 98 101 102 101 100 101 99 99 102 99 91 92 97 95 94 98 98 95 97 100 100 99 96 92 93 96 92 89 90 92 95 100 100 98 101 98 88 84 92 99 100 100 100 101 101 100 100 100 100 100 101 101 100 99 100 100 100 100 100 101
80 88 92 92 94 99 101 101 101 100 99 100 101 99 97 97 95 94 97 100 97 98 101 101 100 98 92 87 88 86 87 94 98 98 100 101 97 96 97 90 84 88 96 99 99 99 100 100 100 100 100 101 100 99 97 94 93 95 99 99 99 100 98
72 81 89 92 90 90 94 98 99 101 102 100 100 101 99 96 95 95 98 101 100 99 100 99 98 98 93 86 86 89 93 99 101 98 99 100 95 92 92 89 88 91 94 94 96 98 99 100 100 100 100 100 99 98 96 91 88 93 99 100 98 99 95
84 84 90 98 96 89 89 94 96 98 101 100 100 101 101 98 98 98 99 101 100 98 96 95 95 96 96 94 94 97 99 100 100 98 99 100 98 96 95 94 95 97 96 96 98 99 99 100 100 100 100 100 100 100 99 95 93 95 99 99 99 100 97
97 91 88 91 92 87 84 88 92 97 100 98 96 97 98 98 100 101 100 100 101 99 98 98 99 99 99 100 100 99 99 101 101 100 100 100 100 100 100 99 100 100 100 100 101 100 100 101 101 99 100 99 99 99 99 99 98 99 100 101 101 100 98

ECMWFFLT1_850_rhum_081.txt.gz
RH
22 22 22 22 22 22 21 21 22 21 22 21 18 18 19 18 23 27 27 37 60 83 98 102 98 96 93 87 84 84 81 75 68 66 65 65 67 70 73 74 81 91 88 83 87 86 84 85 82 78 74 67 60 54 53 54 53 52 53 54 53 50 47
26 26 26 25 25 27 25 25 26 26 27 27 25 22 21 20 22 25 24 24 31 46 75 99 101 98 96 91 87 85 85 82 74 69 67 66 68 71 73 76 81 89 92 89 90 90 90 91 90 86 80 75 69 60 54 56 58 58 57 56 55 52 50
29 30 31 31 31 31 31 31 30 31 32 32 31 29 26 25 25 27 27 28 28 28 51 87 102 100 96 93 88 84 86 89 79 71 69 67 67 71 73 76 81 87 92 93 91 92 93 93 93 90 85 80 74 66 61 60 61 63 61 58 57 55 52
36 37 37 37 37 36 36 36 34 34 34 33 35 34 32 31 30 31 30 30 33 32 40 70 96 103 98 95 94 90 90 93 84 73 70 69 69 72 74 77 83 88 92 94 94 94 95 96 95 93 87 83 79 74 69 65 64 65 63 60 59 57 55
42 43 43 42 42 42 41 41 40 39 39 38 39 39 39 39 37 37 38 36 38 40 41 53 76 98 103 99 99 98 96 94 87 77 72 72 74 75 77 80 85 91 94 97 97 97 98 98 98 96 90 86 83 80 76 72 67 67 66 63 59 58 57
46 48 49 46 47 47 46 46 47 46 45 45 46 47 48 49 49 48 48 48 47 49 51 51 57 77 97 102 101 101 100 96 89 81 75 75 78 79 82 85 89 94 98 100 100 99 100 101 99 99 95 88 85 84 81 76 71 70 70 66 60 59 60
51 52 52 50 51 52 51 51 51 51 52 52 52 53 53 54 58 59 58 58 58 59 63 64 61 66 83 98 101 100 101 99 93 87 81 80 82 83 86 90 93 98 101 101 101 100 101 101 100 100 97 91 88 88 86 82 79 75 71 67 63 61 62
55 56 55 54 54 52 53 55 54 55 56 55 55 58 63 70 77 81 82 82 82 82 83 85 84 82 85 94 100 100 101 101 98 93 88 85 86 88 91 94 97 100 101 101 101 101 100 100 100 101 100 96 93 93 91 85 80 75 70 69 68 65 64
58 58 56 56 55 54 55 56 56 59 60 64 74 81 88 94 96 98 99 98 99 99 98 98 97 95 93 94 99 101 101 101 101 98 95 91 91 92 94 97 99 101 101 100 100 100 100 100 100 100 101 100 96 94 91 85 80 77 73 72 72 68 66
59 59 58 57 55 55 57 57 59 62 63 78 96 100 99 101 100 100 100 100 101 99 99 100 98 98 98 98 100 101 98 97 95 95 97 96 91 92 95 99 101 101 100 101 101 100 100 100 100 100 101 99 94 92 92 87 82 80 78 77 77 72 68
59 59 58 58 56 56 59 62 66 65 69 89 103 99 99 102 100 101 101 100 101 100 98 97 94 94 97 99 103 100 93 88 80 80 92 92 82 85 94 98 101 102 99 100 101 99 100 100 99 100 99 96 93 94 94 89 84 84 84 83 82 78 71
61 60 58 59 59 61 63 65 68 68 74 87 89 84 93 103 100 101 102 100 101 100 99 98 96 94 93 95 99 95 92 92 80 73 82 81 73 84 96 93 94 101 100 100 101 100 100 100 99 101 99 92 91 95 94 88 86 88 87 86 87 83 74
62 60 60 63 66 68 67 65 66 68 70 74 77 83 94 100 100 101 103 103 103 101 98 97 97 95 91 89 88 86 90 99 95 87 86 78 74 88 98 91 88 92 94 96 100 100 99 99 99 100 96 88 87 92 93 90 89 90 89 87 89 83 74
62 61 63 68 72 71 66 64 67 69 66 67 77 87 91 92 95 99 99 99 100 99 97 98 99 99 96 93 93 93 92 95 98 98 95 86 81 87 94 92 89 91 91 93 96 96 97 97 96 96 90 84 85 88 89 89 89 89 89 88 89 84 76
66 68 68 71 74 71 67 67 71 74 74 75 79 83 85 87 90 92 92 91 93 94 95 95 93 91 90 90 94 97 92 87 92 96 94 94 91 90 92 92 92 95 98 99 98 98 99 98 96 94 89 84 86 86 85 89 91 92 95 94 93 88 78
71 75 74 71 70 72 74 73 73 78 85 90 87 81 81 83 81 82 85 87 92 93 91 87 86 86 83 81 86 94 88 79 82 90 94 100 99 95 95 93 90 91 95 98 99 99 100 101 99 98 95 91 91 89 88 94 97 99 101 99 95 89 77
75 76 75 72 70 76 82 77 72 77 90 99 97 91 89 87 83 83 85 88 91 91 89 90 92 93 90 84 82 87 81 69 74 90 99 101 101 99 100 99 91 84 86 93 95 90 90 93 91 89 90 91 94 95 96 100 101 101 101 99 94 86 74
79 74 71 71 73 80 85 81 73 76 90 100 100 100 101 99 95 94 92 91 91 90 94 98 97 93 92 90 82 76 68 59 72 96 103 100 101 100 99 102 97 85 83 90 95 93 92 93 88 85 86 89 93 96 95 96 98 96 97 98 92 81 76
81 76 69 70 75 79 83 83 78 79 92 100 99 101 103 100 100 100 98 95 93 92 93 96 96 89 84 84 78 71 66 61 72 97 104 98 101 101 98 101 99 89 83 84 89 94 98 100 97 95 97 97 98 99 94 91 91 88 92 97 89 79 84
81 79 73 72 76 77 78 82 84 86 95 100 100 100 100 100 102 102 100 96 91 90 88 89 93 88 76 73 73 70 68 65 75 97 104 98 101 102 97 96 93 87 84 81 83 86 90 93 94 95 99 100 100 102 98 95 93 88 89 92 84 82 91
78 81 79 76 77 78 76 79 87 94 98 101 101 95 92 96 97 93 94 93 85 88 92 89 89 86 78 79 80 76 73 71 78 96 103 99 97 92 88 88 84 80 81 83 86 87 84 83 83 86 96 101 99 100 99 99 99 94 91 90 83 87 92
77 84 86 80 77 76 74 77 87 96 100 102 100 91 85 89 88 83 89 94 91 94 98 91 87 86 86 88 86 80 77 73 78 94 102 97 92 85 84 86 83 80 84 88 91 91 86 82 78 81 93 101 100 98 97 97 100 100 98 91 85 88 88
79 89 93 88 81 73 71 78 90 97 99 101 100 91 80 79 83 86 94 100 100 99 94 89 89 91 93 94 89 83 80 75 80 96 100 93 90 89 91 94 91 90 92 94 94 93 91 89 84 83 94 101 101 99 98 97 97 100 100 93 88 93 91
85 95 99 96 91 81 77 86 96 100 100 100 101 96 83 76 83 94 100 102 101 95 88 87 91 93 94 95 88 83 83 81 85 95 95 89 91 95 98 100 99 96 95 97 98 96 94 93 88 86 94 100 100 99 100 100 99 99 100 96 93 97 92
91 99 101 101 100 95 92 96 101 102 101 99 100 100 90 83 87 96 100 99 95 90 86 86 89 91 93 92 89 87 89 90 92 96 95 94 97 100 100 100 100 97 95 98 100 97 95 94 88 83 86 93 98 100 99 100 100 99 100 99 98 98 93
98 101 102 101 101 100 100 100 98 99 100 100 101 98 91 90 94 95 94 88 81 84 89 86 86 93 94 93 96 98 97 98 99 99 99 99 100 101 101 100 100 99 95 94 95 93 91 89 84 77 75 78 87 97 100 100 100 100 99 99 98 99 99
101 102 102 102 101 100 101 98 95 97 99 100 100 93 86 92 101 100 95 86 78 83 89 84 85 96 98 94 96 99 100 101 101 99 100 102 100 100 101 100 100 98 92 87 86 87 88 87 85 82 79 76 78 88 97 101 101 100 100 99 98 100 101
103 102 101 101 100 100 101 99 97 99 100 100 102 96 88 90 98 101 100 91 82 83 87 84 88 99 98 93 95 99 101 101 98 96 98 100 100 100 100 100 100 98 95 91 90 90 92 94 95 93 92 89 84 84 93 100 100 99 100 100 99 100 101
103 103 101 101 100 100 101 101 101 101 99 99 102 101 95 94 97 100 100 96 90 88 86 85 91 98 100 98 99 100 101 100 99 98 96 96 98 99 97 98 100 101 100 99 99 99 99 100 101 100 98 96 90 83 85 89 90 93 98 101 101 100 100
104 103 102 101 101 100 100 101 101 101 100 100 100 100 100 99 99 98 96 94 96 95 89 86 91 97 100 100 98 96 98 97 95 93 90 87 88 86 82 83 90 97 101 100 100 101 101 100 101 101 101 100 95 87 84 84 86 91 98 100 99 97 97
98 100 100 100 101 102 100 100 100 100 100 101 99 99 100 100 100 100 97 95 98 98 94 92 94 96 96 94 92 93 97 96 93 94 92 87 83 79 76 75 78 87 99 102 99 100 102 101 101 101 101 102 101 97 95 95 96 98 99 98 96 93 94
88 90 90 91 96 100 100 100 102 101 100 100 101 100 100 99 98 99 100 99 100 101 99 96 92 90 90 90 92 96 98 93 90 95 99 97 92 90 89 84 77 81 94 102 100 99 101 101 100 100 101 101 101 101 100 101 101 101 99 99 98 96 96
84 84 84 83 88 96 101 102 102 101 100 100 101 101 101 100 97 98 100 100 100 101 101 98 94 92 93 94 97 100 100 94 90 92 95 97 98 99 97 88 79 80 91 100 101 100 100 100 100 100 100 100 100 100 101 100 100 100 100 100 101 100 99
76 78 81 81 83 91 99 101 99 101 102 102 101 103 102 96 92 94 98 100 100 100 101 100 98 98 100 100 99 100 101 100 99 98 95 95 97 100 97 89 82 82 89 97 100 100 100 101 100 100 100 100 100 100 100 100 100 100 100 100 100 100 100
78 78 81 83 85 91 97 97 97 100 102 102 103 102 93 83 84 92 98 100 101 100 100 101 100 100 100 100 100 100 101 101 101 101 99 97 97 98 96 90 86 85 88 94 100 101 100 101 101 100 100 100 100 100 100 100 100 100 100 100 100 100 99
91 86 83 83 85 90 93 92 93 97 102 103 104 100 91 86 92 99 100 99 100 100 100 100 100 100 100 100 100 100 101 100 100 101 101 99 99 100 98 94 93 92 91 94 99 101 100 100 100 100 100 100 100 100 100 98 98 99 99 99 100 100 96

ECMWFFLT1_850_rhum_084.txt.gz
RH
25 25 24 25 25 25 25 25 25 26 28 28 28 29 29 29 30 29 27 25 24 23 23 24 23 22 21 24 38 58 81 99 102 97 95 92 88 87 84 80 83 86 79 72 73 68 59 57 61 65 67 67 69 73 71 65 62 58 53 48 45 46 48
28 28 28 27 27 28 28 28 29 31 33 34 34 34 33 33 34 33 31 29 28 27 29 29 26 24 24 26 29 31 44 76 100 101 99 98 94 90 88 84 85 88 83 75 75 72 61 58 64 66 70 76 73 73 76 72 67 63 59 55 51 48 49
31 31 32 32 31 32 33 34 35 37 39 39 39 38 38 38 38 37 36 35 33 32 33 35 32 28 24 27 33 31 31 57 91 103 100 99 99 96 91 89 88 88 86 79 75 74 65 60 68 68 69 80 82 78 80 78 73 69 67 66 63 57 51
36 37 37 37 37 37 38 40 41 42 43 43 43 42 41 41 41 41 40 39 38 38 38 40 38 33 31 33 36 35 33 44 70 95 103 100 100 100 96 92 91 88 87 84 79 75 68 63 69 71 71 82 89 87 85 82 77 73 72 73 73 66 57
42 44 45 44 45 46 46 47 48 48 48 48 48 47 45 44 43 42 42 41 40 40 42 45 44 39 39 45 46 42 40 39 47 72 97 103 99 101 100 95 92 89 88 88 83 77 72 68 72 77 80 86 91 92 92 89 81 76 75 77 78 74 64
48 50 51 50 51 52 51 52 52 53 52 52 51 50 49 48 47 46 46 45 44 45 47 50 51 48 46 51 54 51 50 49 44 51 78 100 102 99 101 100 95 92 89 89 85 79 76 75 77 83 87 90 94 95 95 93 85 78 79 82 83 79 72
52 52 53 54 54 54 54 54 54 54 53 52 52 52 51 50 50 49 50 50 53 59 65 69 69 67 64 67 73 74 70 67 61 53 62 86 101 101 100 101 99 97 94 91 88 85 83 81 82 87 91 92 95 98 97 96 90 82 81 85 85 80 74
56 55 56 56 56 55 55 54 53 53 53 52 51 50 51 52 57 63 67 70 77 84 89 91 90 89 89 91 94 97 95 89 83 77 71 78 94 101 100 101 101 100 99 96 94 92 89 87 87 92 96 96 98 101 99 98 97 88 82 83 84 79 74
58 58 58 57 56 55 54 54 53 53 53 53 54 60 69 73 81 89 92 93 96 98 99 99 99 99 100 101 100 99 100 99 96 98 95 90 93 99 100 101 100 101 101 100 100 98 94 94 95 96 99 101 101 100 98 97 97 90 83 85 87 82 75
59 61 60 58 56 55 54 54 53 53 54 54 60 79 95 98 97 99 100 100 101 100 101 101 101 101 99 99 100 99 100 102 100 100 101 99 97 98 100 101 100 101 101 100 101 101 98 98 100 99 100 101 99 97 98 99 97 89 85 91 93 86 77
62 62 61 59 58 56 56 57 55 55 55 51 59 84 101 102 101 101 101 102 103 102 102 101 99 98 97 94 93 94 96 98 100 101 101 100 100 99 99 101 101 100 100 100 101 100 100 101 99 96 98 100 99 98 100 101 97 89 88 94 95 88 79
64 63 61 61 61 59 59 58 56 56 55 54 67 89 101 101 101 102 101 102 103 102 102 101 97 94 93 91 88 91 94 95 98 101 100 100 101 100 98 98 96 95 95 99 101 99 98 99 97 95 98 100 99 99 101 100 95 89 89 94 95 89 80
65 63 63 63 63 63 61 58 57 57 57 64 80 91 95 98 101 100 101 101 101 101 102 101 97 92 90 91 91 94 98 99 99 98 98 99 99 100 98 93 92 92 88 87 92 95 92 89 91 95 100 100 99 101 102 99 94 89 90 94 93 86 81
65 64 64 65 66 66 61 58 60 62 62 68 77 82 88 98 101 100 101 100 100 102 102 99 93 87 85 88 89 91 93 96 99 98 98 98 97 97 94 86 86 92 92 90 91 90 86 82 84 92 97 99 100 100 98 94 88 84 87 91 88 83 83
67 66 64 66 68 67 63 62 64 64 61 61 64 73 89 100 102 101 101 100 98 99 100 97 91 83 80 80 82 86 84 82 85 86 85 87 91 94 92 85 80 81 86 95 99 97 93 90 87 89 92 95 97 94 88 85 81 79 82 85 86 88 90
69 69 68 67 68 70 70 67 64 60 55 55 61 75 93 101 101 101 101 98 95 92 92 91 89 87 81 75 76 80 74 65 67 72 75 79 83 85 87 84 77 71 72 80 86 89 95 100 97 93 89 91 95 93 87 87 88 89 91 93 95 98 97
70 71 72 70 68 73 75 67 59 56 53 52 59 75 94 102 101 100 102 100 96 92 88 84 84 86 82 73 74 78 70 59 58 59 65 78 85 86 87 83 73 66 63 64 67 71 77 86 92 90 87 90 95 95 93 95 98 99 100 100 101 101 99
74 72 73 73 71 74 76 68 58 56 58 56 60 78 96 102 101 101 101 101 99 94 88 81 75 73 72 73 78 78 68 60 59 55 57 74 92 97 96 93 86 78 67 62 70 77 74 73 76 77 80 83 87 93 96 98 101 101 100 102 102 99 96
79 76 74 74 72 71 73 70 61 57 62 64 70 87 101 101 101 102 101 100 100 98 93 84 72 63 62 66 71 73 67 62 64 62 57 70 94 104 99 96 99 98 85 72 77 88 91 89 85 83 86 82 81 93 100 98 100 102 101 102 101 96 95
81 82 77 72 71 68 66 67 66 63 65 70 80 94 102 101 101 101 100 100 101 100 97 87 75 68 65 63 64 66 66 64 67 66 61 69 92 100 95 94 99 103 97 85 82 87 95 100 95 92 96 93 89 97 101 98 99 100 98 101 99 94 94
81 84 79 70 68 68 62 63 72 72 68 74 90 99 101 101 102 100 101 102 102 102 97 85 76 72 69 69 68 63 61 64 67 67 66 74 83 80 79 90 97 97 94 89 87 88 91 96 97 95 98 98 94 98 100 99 100 98 95 97 95 91 94
83 85 79 70 67 67 62 63 71 73 72 81 96 102 100 102 102 100 101 103 103 101 92 80 75 74 72 74 75 68 64 63 64 70 78 84 77 65 71 89 96 94 95 95 95 97 95 94 96 99 100 99 97 99 101 100 100 100 98 98 96 94 93
87 89 86 79 71 64 63 66 68 69 77 89 99 101 100 101 100 95 93 98 102 100 94 85 77 71 71 73 72 70 68 65 70 83 90 84 71 66 77 93 98 97 100 100 99 101 100 96 95 96 98 100 100 99 99 99 100 99 98 100 101 98 92
91 94 95 92 82 67 63 69 69 67 76 90 98 98 97 99 98 88 82 88 96 100 101 94 75 63 68 75 74 73 76 80 89 96 91 80 78 83 91 99 101 99 101 102 100 101 102 100 96 93 92 94 95 94 96 99 99 96 96 99 101 97 90
96 100 99 100 95 83 73 73 73 71 77 90 96 94 94 97 97 89 84 91 97 100 101 93 76 68 75 83 87 89 92 95 98 98 93 89 89 92 96 100 100 98 99 100 98 95 93 90 88 86 85 84 84 86 93 100 100 96 96 99 101 97 93
99 101 101 101 101 95 86 83 80 77 83 93 98 97 97 99 98 96 96 99 101 100 95 85 76 76 82 90 98 100 99 97 95 94 97 99 96 95 98 99 98 97 94 91 88 86 83 81 79 80 81 80 78 82 93 101 100 97 99 100 101 100 99
101 101 101 101 102 98 94 92 88 83 88 98 102 100 99 100 99 97 98 102 100 92 82 76 77 83 89 97 101 100 97 99 98 96 97 99 99 99 99 95 93 91 87 81 78 79 81 83 83 84 86 84 78 80 93 101 99 99 101 100 100 101 100
102 102 101 101 101 100 99 98 93 90 93 101 104 102 100 100 99 97 98 100 96 84 77 81 89 94 98 101 101 98 95 93 93 96 99 100 100 100 98 96 95 92 87 82 82 85 88 92 95 96 97 94 84 81 93 101 100 100 101 99 99 101 100
103 103 102 102 101 100 100 100 98 97 98 100 101 101 100 100 100 100 99 99 95 89 88 94 98 100 100 99 97 97 95 91 90 94 97 98 99 99 99 100 100 99 96 94 95 97 97 98 100 100 101 101 94 89 94 101 100 100 100 99 100 100 98
102 102 103 103 103 102 100 99 100 100 99 100 100 100 100 100 99 100 100 98 97 98 99 100 101 101 101 99 96 94 92 92 94 96 95 95 98 100 100 100 99 99 100 100 100 101 101 100 101 101 101 102 100 96 97 100 100 100 100 100 100 100 99
96 100 101 100 101 103 102 99 99 100 100 100 100 100 101 101 99 100 102 101 100 100 99 99 100 100 100 101 100 97 92 88 89 92 92 90 89 92 98 102 100 96 97 99 99 100 101 101 101 102 101 99 96 94 94 95 97 100 100 99 100 101 99
87 92 94 93 95 101 103 100 99 100 100 100 100 101 102 102 100 101 102 99 97 99 100 100 99 99 99 100 101 100 96 93 92 92 89 87 84 82 86 94 98 98 98 96 92 93 99 101 100 100 102 100 95 91 88 88 92 98 101 100 100 101 100
81 85 86 85 86 93 99 101 100 100 100 101 100 101 101 101 102 103 98 91 91 96 100 100 100 100 100 99 100 100 99 99 99 95 91 92 95 91 85 83 88 93 95 90 84 87 96 100 100 99 101 101 99 95 90 84 83 90 99 101 99 100 100
79 83 86 85 83 83 89 97 101 100 100 102 101 100 99 97 96 96 91 88 92 98 100 100 100 100 100 99 100 101 100 100 101 99 96 97 100 100 95 90 84 83 83 81 80 87 96 100 100 100 100 99 100 100 96 88 81 87 99 103 100 100 99
79 82 86 89 86 82 85 92 97 99 102 103 101 98 94 89 87 88 89 91 96 99 100 100 100 100 100 100 100 100 100 100 100 99 98 95 93 94 99 100 92 82 77 75 78 88 98 101 100 100 101 99 98 99 101 98 92 91 97 98 97 97 95
83 82 85 88 87 84 84 88 91 94 99 102 101 96 92 89 92 95 97 98 100 100 100 100 100 100 100 100 100 100 100 100 100 100 98 95 92 92 98 102 97 86 77 75 79 89 98 101 100 100 101 100 99 99 100 100 97 94 94 95 94 94 95

ECMWFFLT1_850_rhum_087.txt.gz
RH
34 35 36 36 36 35 34 33 32 32 33 31 30 30 30 29 30 30 29 28 28 28 30 29 28 27 27 28 27 23 23 23 24 26 27 36 58 82 98 101 99 100 96 90 91 90 83 80 81 78 77 78 77 75 71 66 58 48 38 34 44 54 49
40 41 41 41 41 41 39 38 39 39 40 39 37 36 36 36 37 36 35 36 35 34 35 34 32 30 31 33 31 28 28 27 25 27 27 26 31 46 71 93 101 101 99 96 95 91 87 88 86 81 81 81 78 76 73 68 62 53 44 39 46 57 57
46 46 47 47 46 44 43 43 42 43 44 44 43 42 42 42 42 42 41 41 40 39 40 40 37 35 35 38 38 34 33 34 32 30 29 28 28 30 41 67 92 100 100 99 98 93 92 95 91 84 84 84 80 77 74 69 64 57 49 43 48 60 63
49 51 51 51 50 48 48 48 47 48 48 48 47 47 46 46 46 46 45 44 44 44 45 44 42 40 40 43 43 40 39 40 38 38 39 34 32 32 30 40 69 93 100 100 99 97 94 95 94 89 84 86 85 80 77 73 66 60 54 47 47 56 64
51 54 54 53 54 53 52 53 53 52 51 50 50 50 50 50 50 48 47 46 46 47 48 50 49 48 51 56 55 50 50 49 45 45 49 46 39 38 35 31 47 77 96 101 99 99 98 94 94 94 86 86 90 86 81 77 69 61 57 53 50 52 59
54 56 57 56 56 56 56 56 56 56 54 53 52 52 52 51 51 50 50 49 48 50 57 62 62 60 63 68 68 64 61 60 58 56 59 59 53 51 52 43 38 54 81 101 102 98 100 97 95 96 92 87 90 91 86 80 73 66 61 58 57 57 60
58 59 59 59 58 59 59 58 58 58 56 55 55 55 55 54 53 50 49 49 52 58 67 74 75 72 72 75 76 75 73 71 72 71 69 68 67 71 75 68 53 46 62 89 101 99 101 99 92 93 96 93 90 91 91 87 79 71 66 65 65 65 67
62 62 62 61 61 60 60 60 60 58 58 57 57 56 55 53 52 52 54 60 67 71 73 78 82 81 80 81 83 84 85 86 88 89 87 83 85 91 94 90 78 65 67 85 96 99 100 97 91 89 93 97 95 91 92 94 92 84 75 73 72 68 70
65 65 64 63 62 62 61 61 59 59 60 59 58 60 61 59 62 72 80 86 90 90 87 87 89 88 86 88 92 93 94 97 98 99 99 96 96 99 100 99 94 89 91 95 96 100 101 98 96 92 89 96 97 91 90 96 99 93 83 80 80 73 70
65 66 66 64 64 62 61 61 59 59 60 60 65 77 85 87 89 95 99 100 101 100 98 97 96 95 93 94 97 98 97 98 98 98 100 101 101 101 99 100 99 98 101 100 97 99 100 99 99 94 91 97 95 89 90 94 97 96 89 88 92 86 76
65 66 66 66 64 62 61 60 59 60 61 61 64 73 85 96 100 100 99 99 101 100 98 98 96 94 93 91 90 89 88 88 88 89 92 96 99 101 100 100 101 100 100 100 100 100 99 100 101 94 92 98 97 94 95 93 92 95 95 95 98 97 87
68 67 67 66 66 63 61 60 60 63 64 62 61 67 81 93 94 92 91 90 91 93 96 98 96 93 93 91 88 87 86 83 81 79 79 79 83 91 99 100 99 100 101 101 100 100 99 100 100 94 91 94 94 93 96 97 94 94 96 97 98 100 93
70 69 68 68 68 65 62 62 64 65 65 63 67 76 86 88 83 79 81 81 81 84 90 96 98 98 97 95 94 94 92 88 85 81 77 73 73 81 92 93 87 89 98 101 100 100 100 99 100 99 94 91 91 90 90 93 95 96 97 97 98 100 92
71 70 70 71 72 70 66 65 68 68 66 65 67 75 79 76 73 72 73 77 82 87 91 93 97 100 98 95 97 99 99 98 96 92 86 78 73 74 79 82 79 81 89 96 100 102 99 92 91 98 96 87 86 91 91 90 93 96 95 95 97 94 85
72 72 71 72 75 74 70 70 71 70 67 63 63 68 70 69 72 78 81 86 89 91 90 89 94 100 100 98 98 97 99 103 101 95 88 79 72 70 70 71 75 80 85 89 95 99 101 94 83 87 97 91 80 82 86 87 89 88 86 89 92 88 84
73 73 72 73 78 79 75 72 72 68 65 61 58 61 68 73 81 89 93 92 90 88 88 90 96 101 101 100 97 93 96 100 99 97 94 83 71 67 66 63 64 69 74 77 79 79 86 94 86 78 86 91 86 84 84 84 85 86 88 94 96 93 91
73 73 74 77 80 83 78 72 69 64 60 58 57 60 73 87 96 100 98 93 90 92 95 97 99 100 101 101 97 93 93 94 94 97 96 86 77 73 73 69 62 59 59 62 70 68 65 76 81 74 76 82 81 81 84 87 89 91 96 100 100 100 99
73 71 76 81 82 82 78 71 66 61 55 54 57 65 82 96 102 102 98 94 94 97 100 101 100 99 101 101 96 91 89 89 94 98 91 81 83 90 94 88 77 71 63 57 65 72 68 68 69 69 78 86 82 77 79 83 84 87 96 102 101 101 100
73 72 77 82 81 78 75 70 63 56 54 55 58 69 87 101 103 101 99 97 98 100 99 99 100 100 100 100 95 91 88 84 85 89 82 72 80 97 101 90 80 79 75 64 62 69 74 76 75 73 77 83 83 83 86 86 81 82 93 101 100 100 99
75 78 81 81 78 75 73 70 64 58 57 59 61 70 87 99 101 101 101 100 99 101 99 97 100 101 100 100 96 89 85 75 65 71 80 82 89 97 94 85 82 84 79 67 61 65 73 79 85 92 92 85 80 82 87 92 89 87 92 98 99 100 100
77 84 84 78 77 77 72 69 70 67 61 61 66 74 86 98 101 101 101 101 99 100 100 100 100 97 95 96 91 78 72 63 51 58 80 92 93 91 83 80 86 87 76 62 59 72 84 85 85 91 93 89 86 82 81 91 96 92 93 100 101 99 100
81 87 85 78 79 82 75 70 79 80 68 67 77 83 86 92 97 98 100 102 100 99 99 100 100 96 93 95 87 70 60 54 47 54 74 82 78 76 76 79 86 84 72 64 72 88 99 98 92 88 82 78 80 77 75 87 97 90 87 96 101 100 100
85 92 90 82 79 82 78 77 84 83 72 74 87 89 83 82 86 92 98 102 100 99 99 101 100 97 93 90 81 69 63 66 69 75 80 75 65 65 71 82 92 90 78 77 89 99 101 99 98 94 83 74 75 78 80 89 95 88 82 87 93 98 100
90 97 97 89 81 78 78 83 86 76 69 80 93 89 81 79 82 88 95 100 101 99 99 101 100 98 97 93 85 78 77 82 87 88 86 79 72 70 73 83 95 97 92 94 99 100 100 100 99 98 91 81 80 87 95 98 95 87 83 82 84 91 98
95 101 100 95 90 85 82 86 86 71 66 82 93 86 80 84 89 89 91 98 103 101 100 101 93 85 84 84 81 82 85 90 95 95 91 86 83 82 84 90 93 91 94 101 101 97 100 101 97 96 95 88 84 88 96 99 96 92 91 91 91 93 97
99 102 101 98 97 95 91 91 86 71 68 85 94 90 88 95 98 93 87 90 95 97 101 100 88 80 82 83 83 89 95 97 99 99 92 86 86 89 92 90 83 76 82 96 101 99 100 97 91 89 90 91 92 95 98 100 100 99 98 95 96 99 100
100 102 102 100 100 99 97 96 89 74 75 92 101 99 98 101 102 98 91 88 91 94 100 102 94 91 96 97 94 98 101 100 100 99 93 88 88 87 81 77 74 74 79 88 92 92 93 93 93 94 95 97 97 98 100 101 100 100 93 84 87 98 100
102 102 100 100 102 101 99 99 94 85 87 99 105 102 101 101 101 101 98 97 98 99 101 102 94 88 91 96 98 99 100 100 102 102 99 97 94 88 81 78 82 85 86 84 82 83 87 93 98 100 100 101 98 96 99 100 99 99 90 77 82 98 101
103 103 101 101 102 102 100 100 98 95 96 101 102 101 102 101 100 101 101 101 102 102 101 98 92 87 90 96 99 100 99 98 99 100 100 101 101 98 94 89 84 82 83 85 84 85 86 88 92 94 96 99 98 94 93 92 91 93 88 79 85 98 101
101 100 101 102 103 102 100 101 100 98 98 100 100 100 101 101 100 101 101 100 101 100 97 93 91 92 95 97 98 99 99 98 98 98 97 98 100 101 100 97 90 85 87 90 90 89 88 88 91 95 97 98 98 94 90 88 88 89 87 85 92 100 101
94 93 93 97 101 102 101 101 101 99 97 99 101 99 100 101 101 101 102 101 99 96 94 92 92 94 95 95 95 96 95 96 97 97 96 97 99 98 98 100 100 98 97 97 96 95 95 96 98 99 99 98 97 96 96 95 94 93 93 94 97 99 99
87 88 87 87 92 99 101 101 102 102 100 100 100 99 97 98 100 102 102 99 95 93 94 96 97 97 97 96 95 96 96 96 96 96 98 100 99 95 93 94 97 100 101 100 100 100 100 99 99 100 101 99 98 98 101 101 99 99 100 99 98 98 99
82 85 85 81 83 89 92 92 95 99 99 99 100 100 95 93 96 100 99 96 94 94 96 97 98 99 100 99 98 99 100 101 100 98 99 101 101 100 97 91 91 96 100 100 100 100 99 99 99 100 100 100 100 101 102 100 99 100 99 95 95 99 100
75 80 83 82 80 83 84 84 88 95 98 100 101 100 95 90 90 91 91 92 96 98 99 98 98 99 100 100 100 100 99 101 102 101 100 99 97 99 100 96 91 91 94 98 100 98 95 97 100 101 100 100 100 101 100 99 100 101 100 96 96 99 99
77 79 82 84 85 85 83 83 88 94 98 101 102 99 93 86 83 83 84 88 94 98 100 100 100 101 101 100 100 101 100 99 100 100 101 99 93 90 95 100 100 94 91 93 96 94 89 90 96 100 100 99 100 100 99 99 99 100 100 99 99 99 99
85 82 81 83 86 87 84 83 87 92 97 101 102 98 92 88 88 89 90 93 96 98 100 102 102 102 102 100 99 100 100 100 100 100 100 100 97 93 93 97 101 100 95 92 91 88 84 86 94 99 100 99 99 100 99 97 95 96 100 100 100 100 99